Time,TemperatureF,DewpointF,PressureIn,WindDirection,WindDirectionDegrees,WindSpeedMPH,WindSpeedGustMPH,Humidity,HourlyPrecipIn,Conditions,Clouds,dailyrainin,SoftwareType,DateUTC
2013-04-27 00:02:00,54.0,50.0,-100.00,SW,230,6.0,11.0,86,-99.99,,,-99.99,,2013-04-27 05:02:00,
2013-04-27 00:12:00,53.0,49.0,-100.00,SW,235,4.0,9.0,86,-99.99,,,-99.99,,2013-04-27 05:12:00,
2013-04-27 00:22:00,53.0,49.0,-100.00,WSW,240,3.0,7.0,87,-99.99,,,-99.99,,2013-04-27 05:22:00,
2013-04-27 00:32:00,53.0,49.0,-100.00,WSW,240,3.0,7.0,87,-99.99,,,-99.99,,2013-04-27 05:32:00,
2013-04-27 00:42:00,53.0,49.0,-100.00,SSW,210,3.0,4.0,88,-99.99,,,-99.99,,2013-04-27 05:42:00,
2013-04-27 00:52:00,53.0,49.0,-100.00,West,260,2.0,6.0,89,-99.99,,,-99.99,,2013-04-27 05:52:00,
2013-04-27 01:02:00,53.0,49.0,-100.00,West,260,2.0,6.0,89,-99.99,,,-99.99,,2013-04-27 06:02:00,
2013-04-27 01:12:00,52.0,50.0,-100.00,SW,215,4.0,6.0,91,-99.99,,,-99.99,,2013-04-27 06:12:00,
2013-04-27 01:22:00,52.0,49.0,-100.00,SSW,200,4.0,6.0,92,-99.99,,,-99.99,,2013-04-27 06:22:00,
2013-04-27 01:32:00,52.0,49.0,-100.00,SSW,200,4.0,6.0,92,-99.99,,,-99.99,,2013-04-27 06:32:00,
2013-04-27 01:42:00,52.0,49.0,-100.00,SSW,200,4.0,6.0,92,-99.99,,,-99.99,,2013-04-27 06:42:00,
2013-04-27 01:52:00,51.0,49.0,-100.00,SW,225,2.0,5.0,93,-99.99,,,-99.99,,2013-04-27 06:52:00,
2013-04-27 02:01:00,51.0,49.0,-100.00,SW,225,2.0,5.0,93,-99.99,,,-99.99,,2013-04-27 07:01:00,
2013-04-27 02:11:00,51.0,50.0,-100.00,SW,230,3.0,4.0,94,-99.99,,,-99.99,,2013-04-27 07:11:00,
2013-04-27 02:21:00,51.0,49.0,-100.00,SW,230,4.0,6.0,94,-99.99,,,-99.99,,2013-04-27 07:21:00,
2013-04-27 02:32:00,51.0,49.0,-100.00,SW,230,4.0,6.0,94,-99.99,,,-99.99,,2013-04-27 07:32:00,
2013-04-27 02:42:00,51.0,50.0,-100.00,SW,220,4.0,6.0,95,-99.99,,,-99.99,,2013-04-27 07:42:00,
2013-04-27 02:52:00,51.0,50.0,-100.00,SW,230,4.0,6.0,95,-99.99,,,-99.99,,2013-04-27 07:52:00,
2013-04-27 03:01:00,51.0,50.0,-100.00,SW,230,4.0,6.0,95,-99.99,,,-99.99,,2013-04-27 08:01:00,
2013-04-27 03:11:00,51.0,50.0,-100.00,WSW,245,4.0,6.0,95,-99.99,,,-99.99,,2013-04-27 08:11:00,
2013-04-27 03:21:00,51.0,50.0,-100.00,WSW,240,2.0,4.0,95,-99.99,,,-99.99,,2013-04-27 08:21:00,
2013-04-27 03:33:00,51.0,50.0,-100.00,WSW,240,2.0,4.0,95,-99.99,,,-99.99,,2013-04-27 08:33:00,
2013-04-27 03:41:00,51.0,50.0,-100.00,SW,220,3.0,4.0,95,-99.99,,,-99.99,,2013-04-27 08:41:00,
2013-04-27 03:52:00,51.0,49.0,-100.00,South,190,2.0,4.0,95,-99.99,,,-99.99,,2013-04-27 08:52:00,
2013-04-27 04:01:00,51.0,49.0,-100.00,South,190,2.0,4.0,95,-99.99,,,-99.99,,2013-04-27 09:01:00,
2013-04-27 04:11:00,50.0,49.0,-100.00,WSW,255,2.0,4.0,96,-99.99,,,-99.99,,2013-04-27 09:11:00,
2013-04-27 04:21:00,50.0,49.0,-100.00,SW,235,1.0,3.0,96,-99.99,,,-99.99,,2013-04-27 09:21:00,
2013-04-27 04:33:00,50.0,49.0,-100.00,SW,235,1.0,3.0,96,-99.99,,,-99.99,,2013-04-27 09:33:00,
2013-04-27 04:42:00,50.0,49.0,-100.00,SW,235,4.0,6.0,97,-99.99,,,-99.99,,2013-04-27 09:42:00,
2013-04-27 04:53:00,50.0,49.0,-100.00,SW,235,2.0,4.0,97,-99.99,,,-99.99,,2013-04-27 09:53:00,
2013-04-27 05:02:00,50.0,49.0,-100.00,SW,235,2.0,4.0,97,-99.99,,,-99.99,,2013-04-27 10:02:00,
2013-04-27 05:12:00,50.0,49.0,-100.00,SW,220,2.0,6.0,98,-99.99,,,-99.99,,2013-04-27 10:12:00,
2013-04-27 05:22:00,49.0,49.0,-100.00,SE,140,1.0,4.0,98,-99.99,,,-99.99,,2013-04-27 10:22:00,
2013-04-27 05:32:00,49.0,49.0,-100.00,SE,140,1.0,4.0,98,-99.99,,,-99.99,,2013-04-27 10:32:00,
2013-04-27 05:42:00,49.0,48.0,-100.00,WSW,240,0.0,2.0,99,-99.99,,,-99.99,,2013-04-27 10:42:00,
2013-04-27 05:52:00,49.0,49.0,-100.00,West,270,4.0,5.0,99,-99.99,,,-99.99,,2013-04-27 10:52:00,
2013-04-27 06:02:00,49.0,49.0,-100.00,West,270,4.0,5.0,99,-99.99,,,-99.99,,2013-04-27 11:02:00,
2013-04-27 06:12:00,49.0,49.0,-100.00,NW,310,2.0,3.0,99,-99.99,,,-99.99,,2013-04-27 11:12:00,
2013-04-27 06:22:00,49.0,48.0,-100.00,SSW,195,1.0,4.0,99,-99.99,,,-99.99,,2013-04-27 11:22:00,
2013-04-27 06:32:00,49.0,48.0,-100.00,SSW,195,1.0,4.0,99,-99.99,,,-99.99,,2013-04-27 11:32:00,
2013-04-27 06:42:00,48.0,47.0,-100.00,SSW,195,1.0,3.0,99,-99.99,,,-99.99,,2013-04-27 11:42:00,
2013-04-27 06:52:00,47.0,47.0,-100.00,SSE,165,3.0,4.0,99,-99.99,,,-99.99,,2013-04-27 11:52:00,
2013-04-27 07:01:00,47.0,47.0,-100.00,SSE,165,3.0,4.0,99,-99.99,,,-99.99,,2013-04-27 12:01:00,
2013-04-27 07:11:00,47.0,47.0,-100.00,SSE,160,4.0,4.0,99,-99.99,,,-99.99,,2013-04-27 12:11:00,
2013-04-27 07:22:00,48.0,47.0,-100.00,SSE,160,3.0,6.0,99,-99.99,,,-99.99,,2013-04-27 12:22:00,
2013-04-27 07:32:00,48.0,47.0,-100.00,SSE,160,3.0,6.0,99,-99.99,,,-99.99,,2013-04-27 12:32:00,
2013-04-27 07:42:00,49.0,49.0,-100.00,East,100,1.0,2.0,99,-99.99,,,-99.99,,2013-04-27 12:42:00,
2013-04-27 07:52:00,50.0,50.0,-100.00,SSE,160,2.0,5.0,99,-99.99,,,-99.99,,2013-04-27 12:52:00,
2013-04-27 08:02:00,50.0,50.0,-100.00,SSE,160,2.0,5.0,99,-99.99,,,-99.99,,2013-04-27 13:02:00,
2013-04-27 08:11:00,51.0,51.0,-100.00,ENE,60,3.0,6.0,99,-99.99,,,-99.99,,2013-04-27 13:11:00,
2013-04-27 08:21:00,52.0,51.0,-100.00,NE,45,5.0,6.0,99,-99.99,,,-99.99,,2013-04-27 13:21:00,
2013-04-27 08:32:00,52.0,51.0,-100.00,NE,45,5.0,6.0,99,-99.99,,,-99.99,,2013-04-27 13:32:00,
2013-04-27 08:42:00,53.0,52.0,-100.00,ENE,75,1.0,4.0,99,-99.99,,,-99.99,,2013-04-27 13:42:00,
2013-04-27 08:52:00,54.0,53.0,-100.00,ENE,60,2.0,4.0,96,-99.99,,,-99.99,,2013-04-27 13:52:00,
2013-04-27 09:02:00,54.0,53.0,-100.00,ENE,60,2.0,4.0,96,-99.99,,,-99.99,,2013-04-27 14:02:00,
2013-04-27 09:11:00,54.0,52.0,-100.00,NE,35,4.0,6.0,93,-99.99,,,-99.99,,2013-04-27 14:11:00,
2013-04-27 09:21:00,55.0,52.0,-100.00,ENE,60,3.0,5.0,89,-99.99,,,-99.99,,2013-04-27 14:21:00,
2013-04-27 09:32:00,55.0,52.0,-100.00,ENE,60,3.0,5.0,89,-99.99,,,-99.99,,2013-04-27 14:32:00,
2013-04-27 09:42:00,56.0,52.0,-100.00,NE,40,4.0,5.0,86,-99.99,,,-99.99,,2013-04-27 14:42:00,
2013-04-27 09:52:00,58.0,51.0,-100.00,South,175,2.0,7.0,79,-99.99,,,-99.99,,2013-04-27 14:52:00,
2013-04-27 10:01:00,58.0,51.0,-100.00,South,175,2.0,7.0,79,-99.99,,,-99.99,,2013-04-27 15:01:00,
2013-04-27 10:12:00,58.0,49.0,-100.00,SSE,160,9.0,11.0,72,-99.99,,,-99.99,,2013-04-27 15:12:00,
2013-04-27 10:22:00,60.0,49.0,-100.00,SE,140,6.0,11.0,68,-99.99,,,-99.99,,2013-04-27 15:22:00,
2013-04-27 10:33:00,60.0,49.0,-100.00,SE,140,6.0,11.0,68,-99.99,,,-99.99,,2013-04-27 15:33:00,
2013-04-27 10:42:00,59.0,48.0,-100.00,South,170,11.0,16.0,65,-99.99,,,-99.99,,2013-04-27 15:42:00,
2013-04-27 10:53:00,60.0,48.0,-100.00,SSW,200,6.0,14.0,63,-99.99,,,-99.99,,2013-04-27 15:53:00,
2013-04-27 11:03:00,60.0,48.0,-100.00,SSW,200,6.0,14.0,63,-99.99,,,-99.99,,2013-04-27 16:03:00,
2013-04-27 11:13:00,61.0,47.0,-100.00,SSE,165,10.0,16.0,60,-99.99,,,-99.99,,2013-04-27 16:13:00,
2013-04-27 11:22:00,61.0,47.0,-100.00,SSE,160,11.0,16.0,59,-99.99,,,-99.99,,2013-04-27 16:22:00,
2013-04-27 11:32:00,61.0,47.0,-100.00,SSE,160,11.0,16.0,59,-99.99,,,-99.99,,2013-04-27 16:32:00,
2013-04-27 11:42:00,62.0,47.0,-100.00,SE,145,11.0,18.0,58,-99.99,,,-99.99,,2013-04-27 16:42:00,
2013-04-27 11:53:00,62.0,47.0,-100.00,SSE,160,7.0,15.0,57,-99.99,,,-99.99,,2013-04-27 16:53:00,
2013-04-27 12:02:00,62.0,47.0,-100.00,SSE,160,7.0,15.0,57,-99.99,,,-99.99,,2013-04-27 17:02:00,
2013-04-27 12:12:00,63.0,46.0,-100.00,South,170,9.0,16.0,54,-99.99,,,-99.99,,2013-04-27 17:12:00,
2013-04-27 12:22:00,64.0,44.0,-100.00,South,190,8.0,16.0,49,-99.99,,,-99.99,,2013-04-27 17:22:00,
2013-04-27 12:32:00,64.0,44.0,-100.00,South,190,8.0,16.0,49,-99.99,,,-99.99,,2013-04-27 17:32:00,
2013-04-27 12:42:00,65.0,43.0,-100.00,SW,235,9.0,19.0,46,-99.99,,,-99.99,,2013-04-27 17:42:00,
2013-04-27 12:53:00,65.0,43.0,-100.00,SSW,205,8.0,14.0,45,-99.99,,,-99.99,,2013-04-27 17:53:00,
2013-04-27 13:02:00,65.0,43.0,-100.00,SSW,205,8.0,14.0,45,-99.99,,,-99.99,,2013-04-27 18:02:00,
2013-04-27 13:12:00,65.0,43.0,-100.00,South,180,6.0,16.0,45,-99.99,,,-99.99,,2013-04-27 18:12:00,
2013-04-27 13:22:00,64.0,42.0,-100.00,SW,215,9.0,15.0,44,-99.99,,,-99.99,,2013-04-27 18:22:00,
2013-04-27 13:32:00,64.0,42.0,-100.00,SW,215,9.0,15.0,44,-99.99,,,-99.99,,2013-04-27 18:32:00,
2013-04-27 13:42:00,64.0,41.0,-100.00,South,185,11.0,16.0,43,-99.99,,,-99.99,,2013-04-27 18:42:00,
2013-04-27 13:52:00,64.0,41.0,-100.00,South,170,10.0,17.0,43,-99.99,,,-99.99,,2013-04-27 18:52:00,
2013-04-27 14:02:00,64.0,41.0,-100.00,South,170,10.0,17.0,43,-99.99,,,-99.99,,2013-04-27 19:02:00,
2013-04-27 14:11:00,64.0,41.0,-100.00,SSW,210,6.0,16.0,43,-99.99,,,-99.99,,2013-04-27 19:11:00,
2013-04-27 14:21:00,64.0,41.0,-100.00,SSW,200,9.0,18.0,44,-99.99,,,-99.99,,2013-04-27 19:21:00,
2013-04-27 14:32:00,64.0,41.0,-100.00,SSW,200,9.0,18.0,44,-99.99,,,-99.99,,2013-04-27 19:32:00,
2013-04-27 14:42:00,65.0,42.0,-100.00,SW,225,7.0,12.0,43,-99.99,,,-99.99,,2013-04-27 19:42:00,
2013-04-27 14:53:00,65.0,42.0,-100.00,SSW,205,6.0,18.0,43,-99.99,,,-99.99,,2013-04-27 19:53:00,
2013-04-27 15:02:00,65.0,42.0,-100.00,SSW,205,6.0,18.0,43,-99.99,,,-99.99,,2013-04-27 20:02:00,
2013-04-27 15:11:00,66.0,42.0,-100.00,SSE,165,10.0,17.0,42,-99.99,,,-99.99,,2013-04-27 20:11:00,
2013-04-27 15:21:00,65.0,42.0,-100.00,SSE,165,13.0,23.0,43,-99.99,,,-99.99,,2013-04-27 20:21:00,
2013-04-27 15:32:00,65.0,42.0,-100.00,SSE,165,13.0,23.0,43,-99.99,,,-99.99,,2013-04-27 20:32:00,
2013-04-27 15:42:00,65.0,43.0,-100.00,SSE,150,7.0,17.0,44,-99.99,,,-99.99,,2013-04-27 20:42:00,
2013-04-27 15:52:00,65.0,43.0,-100.00,SSE,160,8.0,16.0,44,-99.99,,,-99.99,,2013-04-27 20:52:00,
2013-04-27 16:02:00,65.0,43.0,-100.00,SSE,160,8.0,16.0,44,-99.99,,,-99.99,,2013-04-27 21:02:00,
2013-04-27 16:12:00,65.0,43.0,-100.00,South,180,1.0,14.0,44,-99.99,,,-99.99,,2013-04-27 21:12:00,
2013-04-27 16:21:00,65.0,43.0,-100.00,SSW,200,9.0,12.0,46,-99.99,,,-99.99,,2013-04-27 21:21:00,
2013-04-27 16:33:00,65.0,43.0,-100.00,SSW,200,9.0,12.0,46,-99.99,,,-99.99,,2013-04-27 21:33:00,
2013-04-27 16:43:00,64.0,45.0,-100.00,South,175,4.0,11.0,49,-99.99,,,-99.99,,2013-04-27 21:43:00,
2013-04-27 16:53:00,64.0,45.0,-100.00,WSW,240,6.0,11.0,51,-99.99,,,-99.99,,2013-04-27 21:53:00,
2013-04-27 17:02:00,64.0,45.0,-100.00,WSW,240,6.0,11.0,51,-99.99,,,-99.99,,2013-04-27 22:02:00,
2013-04-27 17:13:00,62.0,46.0,-100.00,WSW,240,9.0,17.0,56,-99.99,,,-99.99,,2013-04-27 22:13:00,
2013-04-27 17:22:00,62.0,48.0,-100.00,South,190,8.0,17.0,62,-99.99,,,-99.99,,2013-04-27 22:22:00,
2013-04-27 17:32:00,62.0,48.0,-100.00,South,190,8.0,17.0,62,-99.99,,,-99.99,,2013-04-27 22:32:00,
2013-04-27 17:42:00,60.0,50.0,-100.00,SSW,210,9.0,15.0,70,-99.99,,,-99.99,,2013-04-27 22:42:00,
2013-04-27 17:53:00,59.0,52.0,-100.00,SW,220,7.0,16.0,77,-99.99,,,-99.99,,2013-04-27 22:53:00,
2013-04-27 18:02:00,59.0,52.0,-100.00,SW,220,7.0,16.0,77,-99.99,,,-99.99,,2013-04-27 23:02:00,
2013-04-27 18:11:00,58.0,53.0,-100.00,WSW,240,6.0,9.0,81,-99.99,,,-99.99,,2013-04-27 23:11:00,
2013-04-27 18:22:00,58.0,53.0,-100.00,WSW,240,6.0,12.0,82,-99.99,,,-99.99,,2013-04-27 23:22:00,
2013-04-27 18:32:00,58.0,53.0,-100.00,WSW,240,6.0,12.0,82,-99.99,,,-99.99,,2013-04-27 23:32:00,
2013-04-27 18:42:00,58.0,53.0,-100.00,South,190,4.0,10.0,83,-99.99,,,-99.99,,2013-04-27 23:42:00,
2013-04-27 18:52:00,58.0,53.0,-100.00,SSW,200,4.0,9.0,84,-99.99,,,-99.99,,2013-04-27 23:52:00,
2013-04-27 19:01:00,58.0,53.0,-100.00,SSW,200,4.0,9.0,84,-99.99,,,-99.99,,2013-04-28 00:01:00,
2013-04-27 19:11:00,58.0,54.0,-100.00,SW,215,2.0,10.0,86,-99.99,,,-99.99,,2013-04-28 00:11:00,
2013-04-27 19:21:00,58.0,55.0,-100.00,SSE,150,6.0,10.0,91,-99.99,,,-99.99,,2013-04-28 00:21:00,
2013-04-27 19:32:00,58.0,55.0,-100.00,SSE,150,6.0,10.0,91,-99.99,,,-99.99,,2013-04-28 00:32:00,
2013-04-27 19:42:00,58.0,55.0,-100.00,SSE,150,6.0,10.0,91,-99.99,,,-99.99,,2013-04-28 00:42:00,
2013-04-27 19:52:00,56.0,55.0,-100.00,SSE,160,6.0,9.0,97,-99.99,,,-99.99,,2013-04-28 00:52:00,
2013-04-27 20:01:00,56.0,55.0,-100.00,SSE,160,6.0,9.0,97,-99.99,,,-99.99,,2013-04-28 01:01:00,
2013-04-27 20:11:00,56.0,55.0,-100.00,SSE,165,4.0,9.0,98,-99.99,,,-99.99,,2013-04-28 01:11:00,
2013-04-27 20:22:00,55.0,55.0,-100.00,South,190,2.0,8.0,99,-99.99,,,-99.99,,2013-04-28 01:22:00,
2013-04-27 20:32:00,55.0,55.0,-100.00,South,190,2.0,8.0,99,-99.99,,,-99.99,,2013-04-28 01:32:00,
2013-04-27 20:42:00,55.0,55.0,-100.00,SSE,150,2.0,6.0,99,-99.99,,,-99.99,,2013-04-28 01:42:00,
2013-04-27 20:52:00,55.0,55.0,-100.00,SE,130,0.0,2.0,99,-99.99,,,-99.99,,2013-04-28 01:52:00,
2013-04-27 21:02:00,55.0,55.0,-100.00,SE,130,0.0,2.0,99,-99.99,,,-99.99,,2013-04-28 02:02:00,
2013-04-27 21:12:00,55.0,55.0,-100.00,NW,305,0.0,2.0,99,-99.99,,,-99.99,,2013-04-28 02:12:00,
2013-04-27 21:22:00,54.0,54.0,-100.00,South,180,1.0,4.0,99,-99.99,,,-99.99,,2013-04-28 02:22:00,
2013-04-27 21:32:00,54.0,54.0,-100.00,South,180,1.0,4.0,99,-99.99,,,-99.99,,2013-04-28 02:32:00,
2013-04-27 21:42:00,55.0,54.0,-100.00,SE,130,1.0,4.0,99,-99.99,,,-99.99,,2013-04-28 02:42:00,
2013-04-27 21:52:00,54.0,54.0,-100.00,South,175,2.0,7.0,99,-99.99,,,-99.99,,2013-04-28 02:52:00,
2013-04-27 22:01:00,54.0,54.0,-100.00,South,175,2.0,7.0,99,-99.99,,,-99.99,,2013-04-28 03:01:00,
2013-04-27 22:11:00,54.0,54.0,-100.00,SSW,200,1.0,4.0,99,-99.99,,,-99.99,,2013-04-28 03:11:00,
2013-04-27 22:21:00,54.0,54.0,-100.00,SSW,205,3.0,5.0,99,-99.99,,,-99.99,,2013-04-28 03:21:00,
2013-04-27 22:33:00,54.0,54.0,-100.00,SSW,205,3.0,5.0,99,-99.99,,,-99.99,,2013-04-28 03:33:00,
2013-04-27 22:43:00,54.0,54.0,-100.00,SSE,160,6.0,9.0,99,-99.99,,,-99.99,,2013-04-28 03:43:00,
2013-04-27 22:53:00,54.0,54.0,-100.00,SE,140,3.0,9.0,99,-99.99,,,-99.99,,2013-04-28 03:53:00,
2013-04-27 23:02:00,54.0,54.0,-100.00,SE,140,3.0,9.0,99,-99.99,,,-99.99,,2013-04-28 04:02:00,
2013-04-27 23:13:00,54.0,54.0,-100.00,SSE,155,4.0,8.0,99,-99.99,,,-99.99,,2013-04-28 04:13:00,
2013-04-27 23:23:00,54.0,54.0,-100.00,SE,130,2.0,6.0,99,-99.99,,,-99.99,,2013-04-28 04:23:00,
2013-04-27 23:32:00,54.0,54.0,-100.00,SE,130,2.0,6.0,99,-99.99,,,-99.99,,2013-04-28 04:32:00,
2013-04-27 23:42:00,54.0,54.0,-100.00,SE,130,3.0,8.0,99,-99.99,,,-99.99,,2013-04-28 04:42:00,
2013-04-27 23:53:00,54.0,54.0,-100.00,ESE,110,1.0,4.0,99,-99.99,,,-99.99,,2013-04-28 04:53:00,